www.pogodaiklimat.ru

Погода и климат >> Архив погоды >> Казахстан >> Жангизтобе


АРХИВ ПОГОДЫ в Жангизтобе

Время (UTC), дата Ветер
(напр.,м/с)
 
Видим.   Явления Облачность Т
(С)
Тd
(С)
f
(%)
Тe
(С)
Тes
(С)
Комфортность P
(гПа)
Po
(гПа)
Тmin
(С)
Tmax
(С)
R
(мм)
R24
(мм)
S
(см)
15 11.04 СЗ 3 н/о 3/0
[Ci fib]
+6.7 -7.2 36 +4 +4 1023.3 968.5 +15.3
18 11.04 СЗ 3 н/о ясно +4.6 -6.8 43 +2 +2 1023.9 968.7 +15.3
21 11.04 З 1 н/о ясно -2.6 -7.1 71 -5 -5 1025.8 969.1
00 12.04 СЗ 1 50 км ясно -1.0 -6.6 66 -3 -3 1026.4 970.0
03 12.04 СЗ 2 50 км ясно +6.1 -4.5 47 +4 +10 1025.7 970.7
06 12.04 С 2 50 км ясно +14.5 -0.4 36 +14 +27 опасность
простуды
1023.4 970.1 -3.1
09 12.04 С 3 50 км ясно +17.4 -3.3 24 +17 +25 1020.6 968.0
12 12.04 С 4 50 км ясно +16.8 -1.7 28 +16 +17 1019.9 967.2
15 12.04 С 3 н/о ясно +9.2 -2.6 43 +7 +7 1021.9 967.7 +18.7
18 12.04 Ю 2 н/о ясно +2.4 -1.8 74 -1 -1 1022.9 967.4 +18.7
21 12.04 Ю 3 н/о ясно +2.2 -2.7 70 -2 -2 1021.6 966.1
00 13.04 Ю 2 50 км 3/0
[Ac lent]
-1.2 -3.3 86 -5 -5 1022.1 965.9
03 13.04 Ю 1 50 км 4/0
[Ci sp]
+8.1 -3.2 45 +8 +14 1020.4 966.1
06 13.04 ЮЗ 1 50 км 8/0
[Ci sp]
+12.8 -3.3 32 +13 +26 опасность
простуды
1018.8 965.4 -1.7
09 13.04 З 1 50 км 8/0
[Ac lent Ci sp]
+18.3 -2.6 24 +19 +27 1015.3 963.1
12 13.04 С 2 50 км 3/0
[Ci sp]
+19.4 -0.4 26 +20 +21 1015.0 963.0
15 13.04 СЗ 1 н/о ясно +13.7 -1.7 34 +14 +14 1016.7 963.6 +20.1
18 13.04 З 1 н/о ясно +9.0 -2.5 44 +9 +9 1018.0 964.0 +20.1
21 13.04 З 1 н/о ясно +5.8 -3.0 53 +5 +5 1019.2 964.5
00 14.04 Ю 1 50 км 3/0
[Ci sp]
+5.6 -3.3 53 +5 +5 1019.0 964.3
03 14.04 ЮЗ 2 50 км 8/0
[Ci sp]
+13.5 +2.0 46 +13 +18 1017.4 964.3
06 14.04 ЮЗ 2 50 км 8/6 1000 м
[Cu hum Ci sp]
+21.0 +2.9 30 +22 +27 комфорт 1015.2 963.5 +4.2
09 14.04 С 2 50 км 8/8 1000 м
[Cu med, cong]
+21.8 +0.7 25 +21 +23 комфорт 1013.9 962.4
12 14.04 СЗ 4 50 км 6/5 1000 м
[Sc Ac lent]
+21.3 +1.5 27 +21 +22 комфорт 1012.7 961.2
15 14.04 Ю 2 н/о 8/5 1000 м
[Sc Ac lent]
+13.6 +1.3 43 +13 +13 1013.1 960.2 +22.6
18 14.04 Ю 4 н/о 4/0
[Ac lent]
+10.0 -0.3 49 +8 +8 1012.2 958.7 +22.6
21 14.04 Ю 5 н/о 8/4 1000 м
[Sc Ac lent]
+10.4 -0.3 47 +8 +8 1010.5 957.2
00 15.04 Ю 6 50 км 10/6 1000 м
[Sc Ac lent]
+8.8 +0.6 56 +5 +5 1009.3 955.7
03 15.04 Ю 5 50 км 10/0
[Ac As]
+15.8 +1.9 39 +15 +16 1007.0 954.8
06 15.04 Ю 4 50 км 10/0
[Ac As]
+21.0 +0.3 25 +21 +24 комфорт 1003.8 952.7 +8.3
09 15.04 ЮЗ 4 50 км 10/6 1000 м
[Sc Ac As]
+23.2 +2.1 25 +23 +23 комфорт 1000.6 950.0
12 15.04 ЮЗ 4 50 км 10/10 1000 м
[Sc]
+21.3 +4.8 34 +22 +22 комфорт 998.4 947.6
15 15.04 СЗ 2 н/о слаб. ливневой дождь 10/10 1000 м
[Cb calv]
+12.2 +7.8 74 +11 +11 1000.8 948.4 +24.1
18 15.04 Ю 2 н/о слаб. ливневой дождь 10/10 1000 м
[Cb calv]
+11.0 +9.5 90 +10 +10 998.8 946.3 +24.1 0.4
21 15.04 ЮЗ 3 н/о {ливн. осадки} 8/8 1000 м
[Cb calv]
+13.2 +8.1 71 +12 +12 998.9 946.8
00 16.04 З 5 50 км {ливн. осадки} 10/10 1000 м
[Cb calv]
+2.6 +0.8 88 -3 -3 1007.7 953.1
03 16.04 З 7 2000 м ливневой снег 10/10 1000 м
[Cb calv]
+1.0 -1.2 85 -6 -6 1012.2 957.0
06 16.04 З 11
{16}
50 км {ливн. осадки} 10/10 1000 м
[Cb calv]
+0.2 -2.4 83 -8 -8 1014.1 958.6 +0.6 2
09 16.04 З 11
{17}
50 км в посл. час ливневой снег 10/10 1000 м
[Cb calv]
+0.3 -2.6 81 -8 -8 1015.4 959.9
12 16.04 СЗ 4 50 км {ливн. осадки} 10/10 1000 м
[Cb calv]
+1.0 -1.8 82 -4 -4 1016.2 960.8
15 16.04 З 2 н/о 10/10 1000 м
[Sc]
+1.4 -2.0 78 -2 -2 1017.6 962.2 +1.6
18 16.04 ЮЗ 1 н/о 10/10 1000 м
[Sc]
+1.2 -3.9 69 -0 -0 1017.9 962.4 +1.6 0.0
21 16.04 ЮВ 1 н/о 10/10 1000 м
[Sc]
+1.2 -3.5 71 -0 -0 1016.8 961.4
00 17.04 ЮВ 3 50 км 9/9 1000 м
[Sc Ac As]
+1.0 -2.1 80 -3 -3 1016.8 961.3
03 17.04 Ю 2 50 км 6/0
[Ci fib]
+3.5 -4.0 58 +1 +7 1015.3 960.4
06 17.04 Ю 4 50 км 8/0
[Ac lent Ci fib]
+10.0 -2.0 43 +8 +13 1012.8 959.2 -0.8
09 17.04 ЮЗ 3 50 км 6/3 1000 м
[Cu hum Ci fib]
+16.0 -4.8 24 +16 +21 1008.8 956.5
12 17.04 ЮЗ 4 50 км 8/3 1000 м
[Sc Ci fib]
+16.4 -4.8 23 +16 +17 1007.9 955.7
15 17.04 ЮЗ 4 н/о 1/1 1000 м
[Sc diur, vesp]
+12.4 -4.3 31 +11 +11 1008.7 955.8 +17.1
18 17.04 Ю 2 н/о 6/6 1000 м
[Sc]
+10.3 -0.1 48 +9 +9 1008.2 955.0 +17.1
21 17.04 Ю 5 н/о 9/0
[Ac As Ci fib]
+9.4 +2.0 60 +6 +6 1006.3 953.0
00 18.04 З 4 50 км в посл. час ливневой дождь 10/10 1000 м
[Cb calv]
0.0 -2.6 83 -5 -5 1014.7 959.1
03 18.04 СЗ 8 50 км {ливн. осадки} 10/10 1000 м
[Cb calv]
-5.0 -7.8 81 -14 -14 1022.1 965.1 1
06 18.04 З 5 1000 м ливневой снег 10/10 1000 м
[Cb calv]
-4.9 -8.1 78 -12 -12 1025.1 967.9 -5.6 4
09 18.04 СЗ 5 50 км в посл. час ливневой снег 10/10 1000 м
[Cb calv]
-3.8 -8.6 69 -10 -10 1027.1 970.1
12 18.04 СЗ 5 50 км в посл. час ливневой снег 10/10 1000 м
[Cb calv]
-4.7 -9.4 70 -12 -12 1029.8 972.4

 

Местоположение метеостанции Жангизтобе (Восточно-Казахстанская область, Казахстан): широта 49.22 долгота 81.22 высота над уровнем моря 455 м.

В архиве по умолчанию представлена погода в Жангизтобе за последнюю неделю. Архивные данные за месяц целиком и за предыдущие месяцы, начиная с января 2011 года, Вы можете получить, выбрав интересующий диапазон дат из раскрывающегося списка и нажав кнопку "Ввод!".


*Определитесь, кто Вы:
робот инопланетянин человек

Внимание! Время в таблицах - всемирное. Для получения местного времени необходимо прибавить поправку, которая равна 6 ч.

Смотрите также архив погоды в соседних городах и на ближайших метеорологических станциях:

Погода в Кентерлау (Восточно-Казахстанская область, Казахстан) (29 км)
Погода в Шаре (Восточно-Казахстанская область, Казахстан) (42 км)
Погода в Шалабае (Восточно-Казахстанская область, Казахстан) (57 км)
Погода в Кокпекты (Восточно-Казахстанская область, Казахстан) (99 км)
Погода в Кайсеновой (Восточно-Казахстанская область, Казахстан) (117 км)
Погода в Таврии (Восточно-Казахстанская область, Казахстан) (121 км)
Погода в Первомайском (Восточно-Казахстанская область, Казахстан) (130 км)
Погода в Шульбинске (Восточно-Казахстанская область, Казахстан) (130 км)
Погода в Глубоком (Восточно-Казахстанская область, Казахстан) (130 км)
Погода в Усть-Каменогорске (Восточно-Казахстанская область, Казахстан) (131 км)

Пояснения к столбцам:

Ветер - указаны скорость ветра в м/с - средняя за 10 мин, порывы в срок и между сроками (в фигурных скобках) и направление, откуда дует ветер: С - северный, СВ - северо-восточный, В - восточный, ЮВ - юго-восточный, Ю - южный, ЮЗ - юго-западный, З - западный, СЗ - северо-западный.
Видимость - горизонтальная дальность видимости в метрах или километрах. При видимости от 1 до 10 км при отсутствии осадков обычно наблюдается дымка, при ухудшении видимости до 1 км и менее - туман. В сухую погоду видимость может ухудшаться дымом, пылью или мглою.
Явления - указаны атмосферные явления, наблюдавшиеся в срок или в последний час перед сроком; фигурными скобками обозначены явления, наблюдавшиеся между сроками (за 1-3 часа до срока); квадратными скобками обозначены град или гололедные отложения с указанием их диаметра в мм.
Облачность - указаны через наклонную черту общая и нижняя облачность в баллах и высота нижней границы облаков в метрах; квадратными скобками обозначены формы облаков: Ci - перистые, Cs - перисто-слоистые, Cc - перисто-кучевые, Ac - высококучевые, As - высокослоистые, Sc - слоисто-кучевые, Ns - слоисто-дождевые, Cu - кучевые, Cb - кучево-дождевые. Подробнее классификацию облаков см. в Атласе облаков (PDF).
T - Температура воздуха - температура, измеренная на высоте 2 м над землей.
Td - Температура точки росы - температура, при понижении до которой содержащийся в воздухе водяной пар достигнет насыщения.
f - Относительная влажность воздуха - влажноcть воздуха, измеренная на высоте 2 м над землей.
Te - Эффективная температура - температура, которую ощущает одетый по сезону человек в тени. Характеристика душности погоды. При расчете учитывается влияние влажности воздуха и скорости ветра на теплоощущения человека.
Tes - Эффективная температура на солнце - температура, которую ощущает человек, с поправкой на солнечный нагрев. Характеристика знойности погоды. Зависит от высоты солнца над горизонтом, облачности и скорости ветра. Ночью, в пасмурную погоду, а также при ветре 12 м/с и более поправка равна нулю.
P - Атмосферное давление - приведенное к уровню моря атмосферное давление.
Po - Атмосферное давление - измеренное на уровне метеостанции атмосферное давление.
Tmin - Минимальная температура - минимум температуры воздуха на высоте 2 м над землей.
Tmax - Максимальная температура - максимум температуры воздуха на высоте 2 м над землей.
R - Количество осадков - Количество выпавших осадков за период времени, мм. При наведении курсора мыши на число - период времени, за который выпало указанное количество осадков.
R24 - Количество осадков - Количество выпавших осадков за 24 часа, мм.
S - Снежный покров - Высота снежного покрова, см. При наведении курсора мыши на число - состояние снежного покрова и степень покрытия местности в баллах.